Regional Weather Roundup
Issued by NWS

Home | Current Version | Previous Version | Text Only | Print | Product List | Glossary Off
Versions: 1 2 3 4 5 6 7 8 9 10 11 12 13 14 15 16 17 18 19 20 21 22 23 24 25 26 27 28 29 30 31 32 33 34 35 36 37 38 39 40 41 42 43 44 45 46 47 48 49 50

858
ASUS43 KBIS 241910
RWRND

NORTH DAKOTA REGIONAL WEATHER ROUNDUP
NATIONAL WEATHER SERVICE BISMARCK ND
200 PM CDT MON JUL 24 2017

NOTE: "FAIR" INDICATES FEW OR NO CLOUDS BELOW 12,000 FEET WITH NO
SIGNIFICANT WEATHER AND/OR OBSTRUCTIONS TO VISIBILITY.


NDZ001>003-009>011-017-242000-
NORTHWEST NORTH DAKOTA

CITY           SKY/WX    TMP DP  RH WIND       PRES   REMARKS
WILLISTON      SUNNY     94  53  25 VRB7      29.75F HX  91
MINOT          SUNNY     94  56  27 S21G26    29.75F HX  92
MINOT AFB      SUNNY     92  58  31 S16       29.73F HX  90
$$

NDZ018>021-031>035-040>046-242000-
SOUTHWEST NORTH DAKOTA

CITY           SKY/WX    TMP DP  RH WIND       PRES   REMARKS
BISMARCK       MOSUNNY   87  62  43 S13       29.82F
DICKINSON      SUNNY     93  55  27 S15       29.79F HX  91
GARRISON         N/A     90  59  35 S17       29.79F
HETTINGER ARPT SUNNY     90  57  32 SE12      29.84F
$$

NDZ004>008-012>016-024-026-027-054-242000-
NORTHEAST NORTH DAKOTA

CITY           SKY/WX    TMP DP  RH WIND       PRES   REMARKS
GRAND FORKS    PTSUNNY   79  66  64 S17G25    29.90F
GRND FRKS AFB  PTSUNNY   78  65  63 S20       29.90F
DEVILS LAKE    CLOUDY    80  63  55 SE18G24   29.87S
$$

NDZ022-023-025-028>030-036>039-047>053-242000-
SOUTHEAST NORTH DAKOTA

CITY           SKY/WX    TMP DP  RH WIND       PRES   REMARKS
FARGO          MOSUNNY   81  62  52 S17G26      N/A
JAMESTOWN      CLOUDY    77  63  61 SE18      29.88F
$$





USA.gov is the U.S. government's official web portal to all federal, state and local government web resources and services.